Tracking 30701 objects as of 15-Jun-2025
HD Live streaming from Space Station
objects crossing your sky now

COSMOS 1275 DEB

Track COSMOS 1275 DEB now!
10-day predictions


NORAD ID: 13798
Int'l Code: 1981-053GV
Perigee: 908.2 km
Apogee: 1,030.1 km
Inclination: 83.0 °
Period: 104.3 minutes
Semi major axis: 7340 km
RCS: 0.0159 m2 (small)
Launch date: June 4, 1981
Source: Commonwealth of Independent States (former USSR) (CIS)
Launch site: PLESETSK MISSILE AND SPACE COMPLEX (PKMTR)

Note: This is SATELLITE DEBRIS
Your satellite tracking list
Your tracking list is empty




NASA's NSSDC Master Catalog

Two Line Element Set (TLE):
1 13798U 81053GS  25165.59280059  .00000642  00000-0  58214-3 0  9997
2 13798  83.0108  17.2355 0083073  80.5139 280.5397 13.80535432191863
Source of the keplerian elements: AFSPC